AFL2602 UUDD-UWGG

Flight info

Callsign AFL2602
Flight time 1h 4m
Altitude 17000
Route UUDD KOGOM NARIB ADMUL USTOK UWGG
Aircraft YK40/M-SG/L

Departure

Time 2026-04-24 09:43
Airport Domodedovo International Airport (UUDD)

Arrival

Time 2026-04-24 10:48
Airport Nizhny Novgorod / Strigino International Airport (UWGG)
Time Latitude Longitude Altitude Speed Heading
2026-04-24 09:23 55.42137 37.87696 597 ft 0 kts 234°
2026-04-24 09:26 55.42132 37.87682 597 ft 3 kts 234°
2026-04-24 09:26 55.42113 37.87638 597 ft 5 kts 226°
2026-04-24 09:26 55.42079 37.87622 597 ft 5 kts 168°
2026-04-24 09:26 55.42044 37.87651 597 ft 5 kts 147°
2026-04-24 09:27 55.42011 37.87692 597 ft 5 kts 144°
2026-04-24 09:27 55.41978 37.87735 597 ft 6 kts 146°
2026-04-24 09:27 55.41936 37.87783 597 ft 7 kts 146°
2026-04-24 09:27 55.41894 37.87835 597 ft 7 kts 146°
2026-04-24 09:28 55.41842 37.87896 597 ft 10 kts 147°
2026-04-24 09:28 55.41780 37.87969 597 ft 11 kts 146°
2026-04-24 09:28 55.41715 37.88046 597 ft 11 kts 146°
2026-04-24 09:28 55.41652 37.88123 597 ft 10 kts 145°
2026-04-24 09:29 55.41593 37.88195 597 ft 10 kts 145°
2026-04-24 09:29 55.41538 37.88262 597 ft 9 kts 146°
2026-04-24 09:29 55.41484 37.88324 597 ft 8 kts 146°
2026-04-24 09:29 55.41435 37.88384 597 ft 8 kts 145°
2026-04-24 09:30 55.41387 37.88442 597 ft 7 kts 145°
2026-04-24 09:30 55.41341 37.88498 597 ft 8 kts 145°
2026-04-24 09:30 55.41289 37.88562 597 ft 9 kts 145°
2026-04-24 09:30 55.41232 37.88630 597 ft 10 kts 146°
2026-04-24 09:31 55.41166 37.88709 597 ft 11 kts 146°
2026-04-24 09:31 55.41096 37.88792 597 ft 12 kts 146°
2026-04-24 09:31 55.41022 37.88880 597 ft 12 kts 146°
2026-04-24 09:31 55.40947 37.88970 597 ft 13 kts 146°
2026-04-24 09:32 55.40868 37.89064 597 ft 13 kts 146°
2026-04-24 09:32 55.40787 37.89162 597 ft 14 kts 145°
2026-04-24 09:32 55.40723 37.89240 597 ft 14 kts 145°
2026-04-24 09:32 55.40638 37.89343 597 ft 15 kts 145°
2026-04-24 09:33 55.40553 37.89447 597 ft 14 kts 145°
2026-04-24 09:33 55.40469 37.89546 597 ft 13 kts 146°
2026-04-24 09:33 55.40390 37.89640 597 ft 13 kts 146°
2026-04-24 09:33 55.40316 37.89728 597 ft 12 kts 146°
2026-04-24 09:34 55.40246 37.89811 597 ft 11 kts 146°
2026-04-24 09:34 55.40180 37.89891 597 ft 11 kts 146°
2026-04-24 09:34 55.40115 37.89968 597 ft 10 kts 146°
2026-04-24 09:34 55.40055 37.90041 597 ft 10 kts 145°
2026-04-24 09:35 55.39999 37.90110 597 ft 10 kts 145°
2026-04-24 09:35 55.39955 37.90164 597 ft 11 kts 145°
2026-04-24 09:35 55.39891 37.90242 597 ft 10 kts 145°
2026-04-24 09:35 55.39833 37.90313 597 ft 8 kts 145°
2026-04-24 09:36 55.39787 37.90370 597 ft 7 kts 144°
2026-04-24 09:36 55.39749 37.90415 597 ft 6 kts 147°
2026-04-24 09:36 55.39706 37.90464 597 ft 7 kts 146°
2026-04-24 09:36 55.39660 37.90519 597 ft 7 kts 146°
2026-04-24 09:37 55.39616 37.90544 597 ft 5 kts 188°
2026-04-24 09:37 55.39596 37.90526 597 ft 1 kts 230°
2026-04-24 09:37 55.39594 37.90521 597 ft 0 kts 233°
2026-04-24 09:39 55.39593 37.90519 597 ft 1 kts 233°
2026-04-24 09:39 55.39573 37.90470 597 ft 7 kts 234°
2026-04-24 09:39 55.39547 37.90405 597 ft 5 kts 242°
2026-04-24 09:40 55.39539 37.90355 597 ft 2 kts 269°
2026-04-24 09:40 55.39542 37.90322 597 ft 2 kts 286°
2026-04-24 09:40 55.39551 37.90294 597 ft 2 kts 308°
2026-04-24 09:40 55.39563 37.90274 597 ft 1 kts 322°
2026-04-24 09:41 55.39568 37.90268 597 ft 0 kts 322°
2026-04-24 09:42 55.39597 37.90230 597 ft 17 kts 324°
2026-04-24 09:43 55.39858 37.89916 597 ft 76 kts 326°
2026-04-24 09:43 55.40396 37.89235 764 ft 105 kts 325°
2026-04-24 09:43 55.41024 37.88391 1053 ft 125 kts 325°
2026-04-24 09:43 55.41778 37.87405 1433 ft 145 kts 325°
2026-04-24 09:44 55.42659 37.86275 1767 ft 168 kts 323°
2026-04-24 09:44 55.43526 37.84793 2250 ft 181 kts 313°
2026-04-24 09:44 55.44359 37.83052 2792 ft 190 kts 312°
2026-04-24 09:44 55.45222 37.81213 3209 ft 202 kts 311°
2026-04-24 09:45 55.46126 37.79282 3716 ft 208 kts 311°
2026-04-24 09:45 55.47137 37.77462 4310 ft 207 kts 324°
2026-04-24 09:45 55.48444 37.76388 4862 ft 210 kts 342°
2026-04-24 09:45 55.49864 37.75612 5298 ft 217 kts 342°
2026-04-24 09:46 55.51313 37.74826 5719 ft 222 kts 343°
2026-04-24 09:46 55.52903 37.74565 6243 ft 226 kts
2026-04-24 09:46 55.54472 37.75318 6770 ft 230 kts 22°
2026-04-24 09:46 55.55863 37.76725 7250 ft 233 kts 28°
2026-04-24 09:47 55.57248 37.78205 7680 ft 235 kts 27°
2026-04-24 09:47 55.58663 37.79688 8117 ft 237 kts 27°
2026-04-24 09:47 55.60112 37.81190 8559 ft 239 kts 27°
2026-04-24 09:47 55.61578 37.82706 9000 ft 240 kts 27°
2026-04-24 09:48 55.63000 37.84278 9444 ft 242 kts 37°
2026-04-24 09:48 55.64042 37.86587 9932 ft 246 kts 61°
2026-04-24 09:48 55.64482 37.89527 10418 ft 248 kts 81°
2026-04-24 09:48 55.64484 37.92597 10878 ft 250 kts 94°
2026-04-24 09:49 55.64208 37.95646 11313 ft 252 kts 101°
2026-04-24 09:49 55.63817 37.98677 11715 ft 254 kts 101°
2026-04-24 09:49 55.63431 38.01720 12110 ft 256 kts 101°
2026-04-24 09:49 55.63042 38.04850 12515 ft 258 kts 101°
2026-04-24 09:50 55.62654 38.07989 12920 ft 260 kts 101°
2026-04-24 09:50 55.62251 38.11239 13336 ft 261 kts 101°
2026-04-24 09:50 55.61857 38.14399 13675 ft 265 kts 101°
2026-04-24 09:50 55.61411 38.17703 14038 ft 268 kts 102°
2026-04-24 09:51 55.60950 38.21085 14407 ft 271 kts 101°
2026-04-24 09:51 55.60494 38.24487 14779 ft 273 kts 101°
2026-04-24 09:51 55.60055 38.27768 15138 ft 275 kts 101°
2026-04-24 09:51 55.59612 38.31073 15501 ft 277 kts 101°
2026-04-24 09:52 55.59168 38.34377 15830 ft 280 kts 101°
2026-04-24 09:52 55.58709 38.37769 15998 ft 284 kts 101°
2026-04-24 09:52 55.58246 38.41186 16175 ft 288 kts 101°
2026-04-24 09:52 55.57848 38.44683 16389 ft 287 kts 91°
2026-04-24 09:53 55.57987 38.48138 16663 ft 282 kts 74°
2026-04-24 09:53 55.58631 38.51422 16630 ft 288 kts 59°
2026-04-24 09:53 55.59700 38.54611 16536 ft 298 kts 54°
2026-04-24 09:53 55.60808 38.57766 16486 ft 305 kts 54°
2026-04-24 09:54 55.61982 38.61164 16520 ft 303 kts 55°
2026-04-24 09:54 55.63084 38.64380 16530 ft 298 kts 54°
2026-04-24 09:54 55.64171 38.67467 16529 ft 296 kts 55°
2026-04-24 09:54 55.65262 38.70611 16533 ft 295 kts 55°
2026-04-24 09:55 55.66355 38.73789 16535 ft 295 kts 55°
2026-04-24 09:55 55.67438 38.76950 16534 ft 294 kts 56°
2026-04-24 09:55 55.68507 38.80081 16537 ft 294 kts 56°
2026-04-24 09:55 55.69555 38.83155 16534 ft 294 kts 56°
2026-04-24 09:56 55.70618 38.86279 16534 ft 294 kts 56°
2026-04-24 09:56 55.71666 38.89366 16537 ft 294 kts 55°
2026-04-24 09:56 55.72732 38.92487 16538 ft 293 kts 53°
2026-04-24 09:56 55.73940 38.95381 16560 ft 290 kts 47°
2026-04-24 09:57 55.75247 38.98114 16521 ft 291 kts 47°
2026-04-24 09:57 55.76492 39.01107 16532 ft 291 kts 52°
2026-04-24 09:57 55.77573 39.04150 16519 ft 292 kts 54°
2026-04-24 09:57 55.78668 39.07254 16523 ft 290 kts 54°
2026-04-24 09:58 55.79750 39.10303 16530 ft 289 kts 54°
2026-04-24 09:58 55.80836 39.13351 16534 ft 288 kts 54°
2026-04-24 09:58 55.81914 39.16378 16535 ft 287 kts 53°
2026-04-24 09:58 55.82996 39.19417 16535 ft 287 kts 53°
2026-04-24 09:59 55.84078 39.22459 16536 ft 286 kts 53°
2026-04-24 09:59 55.85117 39.25383 16534 ft 286 kts 53°
2026-04-24 09:59 55.85897 39.27578 16535 ft 285 kts 53°
2026-04-24 09:59 55.86972 39.30610 16534 ft 285 kts 53°
2026-04-24 10:00 55.88064 39.33696 16535 ft 285 kts 53°
2026-04-24 10:00 55.89144 39.36750 16536 ft 285 kts 53°
2026-04-24 10:00 55.90249 39.39878 16533 ft 284 kts 53°
2026-04-24 10:00 55.91367 39.43048 16532 ft 284 kts 53°
2026-04-24 10:01 55.92456 39.46141 16534 ft 284 kts 53°
2026-04-24 10:01 55.93510 39.49138 16535 ft 285 kts 53°
2026-04-24 10:01 55.94566 39.52143 16535 ft 285 kts 53°
2026-04-24 10:01 55.95625 39.55159 16535 ft 285 kts 53°
2026-04-24 10:02 55.96691 39.58199 16533 ft 285 kts 53°
2026-04-24 10:02 55.97775 39.61296 16534 ft 285 kts 53°
2026-04-24 10:02 55.98831 39.64315 16532 ft 285 kts 53°
2026-04-24 10:02 55.99854 39.67312 16548 ft 285 kts 58°
2026-04-24 10:03 56.00775 39.70513 16535 ft 286 kts 59°
2026-04-24 10:03 56.01704 39.73746 16502 ft 287 kts 59°
2026-04-24 10:03 56.02656 39.77022 16519 ft 286 kts 59°
2026-04-24 10:03 56.03601 39.80265 16529 ft 285 kts 59°
2026-04-24 10:04 56.04561 39.83554 16534 ft 285 kts 58°
2026-04-24 10:04 56.05504 39.86791 16533 ft 285 kts 59°
2026-04-24 10:04 56.06465 39.90091 16535 ft 285 kts 59°
2026-04-24 10:04 56.07445 39.93457 16534 ft 285 kts 58°
2026-04-24 10:05 56.08402 39.96747 16533 ft 285 kts 58°
2026-04-24 10:05 56.09397 40.00177 16535 ft 285 kts 59°
2026-04-24 10:05 56.10353 40.03479 16536 ft 285 kts 58°
2026-04-24 10:05 56.11311 40.06786 16534 ft 285 kts 58°
2026-04-24 10:06 56.12286 40.10162 16534 ft 286 kts 58°
2026-04-24 10:06 56.14154 40.16639 16536 ft 286 kts 58°
2026-04-24 10:06 56.15066 40.19803 16536 ft 287 kts 59°
2026-04-24 10:07 56.15977 40.22968 16535 ft 287 kts 58°
2026-04-24 10:07 56.16927 40.26274 16536 ft 287 kts 58°
2026-04-24 10:07 56.17841 40.29460 16535 ft 287 kts 58°
2026-04-24 10:07 56.18785 40.32754 16533 ft 287 kts 58°
2026-04-24 10:08 56.19712 40.35993 16535 ft 287 kts 58°
2026-04-24 10:08 56.20620 40.39171 16535 ft 287 kts 58°
2026-04-24 10:08 56.21530 40.42359 16534 ft 287 kts 59°
2026-04-24 10:08 56.22450 40.45591 16536 ft 287 kts 58°
2026-04-24 10:09 56.23361 40.48790 16535 ft 287 kts 59°
2026-04-24 10:09 56.24271 40.51994 16535 ft 287 kts 58°
2026-04-24 10:09 56.25201 40.55268 16534 ft 287 kts 59°
2026-04-24 10:09 56.26131 40.58551 16533 ft 287 kts 58°
2026-04-24 10:10 56.27073 40.61876 16535 ft 287 kts 59°
2026-04-24 10:10 56.27967 40.65241 16562 ft 288 kts 66°
2026-04-24 10:10 56.28435 40.68887 16568 ft 293 kts 81°
2026-04-24 10:10 56.28371 40.72693 16544 ft 299 kts 94°
2026-04-24 10:11 56.28096 40.76512 16474 ft 301 kts 94°
2026-04-24 10:11 56.27839 40.80380 16512 ft 299 kts 93°
2026-04-24 10:11 56.27595 40.84209 16526 ft 298 kts 93°
2026-04-24 10:11 56.27361 40.87946 16530 ft 298 kts 93°
2026-04-24 10:12 56.27121 40.91756 16533 ft 298 kts 92°
2026-04-24 10:12 56.26881 40.95538 16533 ft 298 kts 92°
2026-04-24 10:12 56.26637 40.99341 16533 ft 299 kts 92°
2026-04-24 10:12 56.26417 41.02714 16534 ft 299 kts 92°
2026-04-24 10:13 56.26237 41.05433 16536 ft 298 kts 92°
2026-04-24 10:13 56.25983 41.09223 16533 ft 299 kts 92°
2026-04-24 10:13 56.25730 41.12981 16533 ft 299 kts 93°
2026-04-24 10:13 56.25473 41.16768 16532 ft 299 kts 92°
2026-04-24 10:14 56.25216 41.20535 16532 ft 299 kts 93°
2026-04-24 10:14 56.24960 41.24265 16533 ft 299 kts 92°
2026-04-24 10:14 56.24697 41.28077 16533 ft 299 kts 92°
2026-04-24 10:14 56.24437 41.31840 16534 ft 299 kts 92°
2026-04-24 10:15 56.24175 41.35605 16535 ft 299 kts 92°
2026-04-24 10:15 56.23912 41.39364 16535 ft 299 kts 93°
2026-04-24 10:15 56.23650 41.43101 16535 ft 299 kts 92°
2026-04-24 10:15 56.23390 41.46783 16536 ft 299 kts 92°
2026-04-24 10:16 56.23188 41.50467 16532 ft 298 kts 90°
2026-04-24 10:16 56.22992 41.54231 16514 ft 299 kts 91°
2026-04-24 10:16 56.22781 41.58083 16496 ft 299 kts 91°
2026-04-24 10:16 56.22564 41.61930 16474 ft 300 kts 91°
2026-04-24 10:17 56.22344 41.65800 16450 ft 300 kts 92°
2026-04-24 10:17 56.22125 41.69628 16428 ft 300 kts 92°
2026-04-24 10:17 56.21909 41.73366 16403 ft 301 kts 92°
2026-04-24 10:17 56.21693 41.77095 16380 ft 301 kts 92°
2026-04-24 10:18 56.21476 41.80833 16383 ft 300 kts 92°
2026-04-24 10:18 56.21257 41.84552 16385 ft 299 kts 92°
2026-04-24 10:18 56.21034 41.88343 16385 ft 299 kts 92°
2026-04-24 10:18 56.20807 41.92143 16386 ft 299 kts 92°
2026-04-24 10:19 56.20579 41.95962 16386 ft 298 kts 92°
2026-04-24 10:19 56.20354 41.99694 16387 ft 298 kts 92°
2026-04-24 10:19 56.20123 42.03537 16386 ft 298 kts 92°
2026-04-24 10:19 56.19891 42.07344 16387 ft 298 kts 92°
2026-04-24 10:20 56.19678 42.11120 16403 ft 296 kts 90°
2026-04-24 10:20 56.19488 42.14902 16390 ft 296 kts 91°
2026-04-24 10:20 56.19291 42.18573 16383 ft 281 kts 91°
2026-04-24 10:20 56.19104 42.22052 16155 ft 277 kts 91°
2026-04-24 10:21 56.18917 42.25556 15871 ft 275 kts 91°
2026-04-24 10:21 56.18729 42.29112 15580 ft 273 kts 91°
2026-04-24 10:21 56.18541 42.32640 15290 ft 272 kts 91°
2026-04-24 10:21 56.18361 42.36048 15010 ft 270 kts 91°
2026-04-24 10:22 56.18180 42.39439 14728 ft 269 kts 91°
2026-04-24 10:22 56.18001 42.42813 14449 ft 267 kts 91°
2026-04-24 10:22 56.17822 42.46188 14168 ft 266 kts 91°
2026-04-24 10:22 56.17645 42.49515 13889 ft 264 kts 91°
2026-04-24 10:23 56.17464 42.52898 13606 ft 263 kts 91°
2026-04-24 10:23 56.17277 42.56410 13311 ft 262 kts 91°
2026-04-24 10:23 56.17087 42.59969 13011 ft 260 kts 91°
2026-04-24 10:23 56.16909 42.63314 12729 ft 259 kts 91°
2026-04-24 10:24 56.16726 42.66747 12437 ft 258 kts 91°
2026-04-24 10:24 56.16554 42.69989 12162 ft 256 kts 91°
2026-04-24 10:24 56.16379 42.73298 11878 ft 255 kts 91°
2026-04-24 10:24 56.16209 42.76506 11601 ft 254 kts 91°
2026-04-24 10:25 56.16009 42.79770 11332 ft 254 kts 93°
2026-04-24 10:25 56.15796 42.83016 11052 ft 254 kts 93°
2026-04-24 10:25 56.15593 42.86273 10771 ft 253 kts 93°
2026-04-24 10:25 56.15398 42.89540 10490 ft 253 kts 93°
2026-04-24 10:26 56.15211 42.92780 10212 ft 253 kts 92°
2026-04-24 10:26 56.15019 42.96181 9920 ft 253 kts 93°
2026-04-24 10:26 56.14833 42.99536 9633 ft 253 kts 93°
2026-04-24 10:26 56.14657 43.02856 9354 ft 252 kts 93°
2026-04-24 10:27 56.14496 43.06063 9081 ft 248 kts 92°
2026-04-24 10:27 56.14330 43.09180 8803 ft 243 kts 96°
2026-04-24 10:27 56.14117 43.12250 8514 ft 239 kts 95°
2026-04-24 10:27 56.13926 43.15271 8227 ft 237 kts 96°
2026-04-24 10:28 56.13751 43.18196 7986 ft 233 kts 95°
2026-04-24 10:28 56.13628 43.21107 7811 ft 227 kts 87°
2026-04-24 10:28 56.13835 43.24051 7660 ft 220 kts 74°
2026-04-24 10:28 56.14307 43.26691 7491 ft 217 kts 70°
2026-04-24 10:29 56.14716 43.29301 7301 ft 217 kts 72°
2026-04-24 10:29 56.15136 43.31918 7089 ft 217 kts 70°
2026-04-24 10:29 56.15565 43.34514 6879 ft 217 kts 72°
2026-04-24 10:29 56.16004 43.37093 6681 ft 217 kts 70°
2026-04-24 10:30 56.16452 43.39710 6501 ft 216 kts 70°
2026-04-24 10:30 56.16887 43.42243 6366 ft 213 kts 72°
2026-04-24 10:30 56.17348 43.44858 6217 ft 211 kts 72°
2026-04-24 10:30 56.17760 43.47451 6084 ft 210 kts 77°
2026-04-24 10:31 56.18136 43.50148 5984 ft 206 kts 75°
2026-04-24 10:31 56.18507 43.52721 5939 ft 201 kts 71°
2026-04-24 10:31 56.18859 43.55115 5890 ft 198 kts 74°
2026-04-24 10:31 56.19212 43.57514 5825 ft 197 kts 75°
2026-04-24 10:32 56.19574 43.59890 5759 ft 196 kts 72°
2026-04-24 10:32 56.19922 43.62264 5700 ft 194 kts 73°
2026-04-24 10:32 56.20267 43.64619 5626 ft 194 kts 71°
2026-04-24 10:32 56.20652 43.67021 5554 ft 194 kts 75°
2026-04-24 10:33 56.21038 43.69401 5484 ft 193 kts 72°
2026-04-24 10:33 56.21419 43.71729 5466 ft 191 kts 73°
2026-04-24 10:33 56.21794 43.74010 5450 ft 189 kts 73°
2026-04-24 10:33 56.22171 43.76360 5422 ft 189 kts 73°
2026-04-24 10:34 56.22605 43.78823 5383 ft 188 kts 64°
2026-04-24 10:34 56.23309 43.80905 5376 ft 186 kts 49°
2026-04-24 10:34 56.24111 43.82894 5364 ft 185 kts 60°
2026-04-24 10:34 56.24588 43.85128 5358 ft 184 kts 76°
2026-04-24 10:35 56.24962 43.87412 5317 ft 187 kts 74°
2026-04-24 10:35 56.25412 43.89703 5288 ft 190 kts 70°
2026-04-24 10:35 56.25893 43.92024 5277 ft 192 kts 65°
2026-04-24 10:35 56.26368 43.94282 5252 ft 193 kts 67°
2026-04-24 10:36 56.26828 43.96571 5246 ft 194 kts 69°
2026-04-24 10:36 56.27271 43.98851 5250 ft 193 kts 68°
2026-04-24 10:36 56.27731 44.01243 5250 ft 193 kts 69°
2026-04-24 10:36 56.28179 44.03628 5233 ft 195 kts 70°
2026-04-24 10:37 56.28637 44.06048 5232 ft 194 kts 69°
2026-04-24 10:37 56.29226 44.08527 5221 ft 193 kts 50°
2026-04-24 10:37 56.30344 44.10082 5228 ft 187 kts 16°
2026-04-24 10:37 56.31703 44.10202 5233 ft 178 kts 342°
2026-04-24 10:38 56.33005 44.09414 5233 ft 176 kts 334°
2026-04-24 10:38 56.34196 44.08603 5173 ft 178 kts 335°
2026-04-24 10:38 56.35423 44.07816 5129 ft 177 kts 338°
2026-04-24 10:38 56.36594 44.07092 5079 ft 175 kts 337°
2026-04-24 10:39 56.37800 44.06357 4986 ft 177 kts 336°
2026-04-24 10:39 56.39038 44.05586 4905 ft 177 kts 336°
2026-04-24 10:39 56.40251 44.04837 4796 ft 180 kts 336°
2026-04-24 10:39 56.41449 44.04116 4667 ft 181 kts 337°
2026-04-24 10:40 56.42647 44.03359 4529 ft 179 kts 333°
2026-04-24 10:40 56.43610 44.01964 4398 ft 170 kts 300°
2026-04-24 10:40 56.43919 43.99874 4259 ft 160 kts 267°
2026-04-24 10:40 56.43679 43.97809 4108 ft 156 kts 245°
2026-04-24 10:41 56.43217 43.95906 3959 ft 154 kts 248°
2026-04-24 10:41 56.42799 43.93976 3866 ft 145 kts 247°
2026-04-24 10:41 56.42422 43.92302 3697 ft 140 kts 246°
2026-04-24 10:41 56.42066 43.90674 3506 ft 136 kts 248°
2026-04-24 10:42 56.41678 43.89083 3272 ft 141 kts 245°
2026-04-24 10:42 56.41229 43.87442 3063 ft 142 kts 248°
2026-04-24 10:42 56.40665 43.85989 2955 ft 138 kts 219°
2026-04-24 10:42 56.39768 43.85290 2826 ft 135 kts 188°
2026-04-24 10:43 56.38809 43.85134 2693 ft 139 kts 189°
2026-04-24 10:43 56.37978 43.84837 2612 ft 142 kts 190°
2026-04-24 10:43 56.37336 43.84623 2558 ft 144 kts 192°
2026-04-24 10:43 56.36355 43.84273 2512 ft 143 kts 191°
2026-04-24 10:44 56.35396 43.83893 2498 ft 140 kts 194°
2026-04-24 10:44 56.34460 43.83444 2389 ft 141 kts 196°
2026-04-24 10:44 56.33512 43.82922 2273 ft 141 kts 198°
2026-04-24 10:44 56.32577 43.82377 2126 ft 143 kts 199°
2026-04-24 10:45 56.31618 43.81800 1936 ft 147 kts 199°
2026-04-24 10:45 56.30622 43.81211 1728 ft 146 kts 198°
2026-04-24 10:45 56.29670 43.80736 1660 ft 134 kts 194°
2026-04-24 10:45 56.28711 43.80336 1435 ft 135 kts 193°
2026-04-24 10:46 56.27797 43.79994 1092 ft 135 kts 192°
2026-04-24 10:46 56.26896 43.79672 789 ft 127 kts 191°
2026-04-24 10:46 56.26073 43.79379 599 ft 115 kts 191°
2026-04-24 10:46 56.25325 43.79105 499 ft 108 kts 192°
2026-04-24 10:47 56.24593 43.78833 374 ft 107 kts 192°
2026-04-24 10:47 56.23870 43.78564 269 ft 103 kts 192°
2026-04-24 10:47 56.23238 43.78328 258 ft 79 kts 192°
2026-04-24 10:47 56.22776 43.78154 258 ft 55 kts 192°
2026-04-24 10:48 56.22475 43.78044 258 ft 33 kts 192°
2026-04-24 10:48 56.22315 43.77983 258 ft 14 kts 192°
2026-04-24 10:48 56.22237 43.77954 258 ft 10 kts 192°
2026-04-24 10:48 56.22170 43.77929 258 ft 9 kts 191°
2026-04-24 10:49 56.22110 43.77907 258 ft 8 kts 191°
2026-04-24 10:49 56.22058 43.77889 258 ft 6 kts 191°
2026-04-24 10:49 56.22013 43.77877 258 ft 5 kts 174°
2026-04-24 10:49 56.21987 43.77917 258 ft 4 kts 107°
2026-04-24 10:50 56.21981 43.77969 258 ft 3 kts 102°
2026-04-24 10:50 56.21977 43.78006 258 ft 2 kts 103°
2026-04-24 10:50 56.21973 43.78035 258 ft 2 kts 103°
2026-04-24 10:50 56.21967 43.78082 258 ft 4 kts 103°
2026-04-24 10:51 56.21959 43.78151 258 ft 5 kts 102°
2026-04-24 10:51 56.21951 43.78218 258 ft 5 kts 101°
2026-04-24 10:51 56.21944 43.78282 258 ft 5 kts 101°
2026-04-24 10:51 56.21938 43.78341 258 ft 4 kts 102°
2026-04-24 10:52 56.21932 43.78395 258 ft 4 kts 102°
2026-04-24 10:52 56.21925 43.78454 258 ft 5 kts 102°
2026-04-24 10:52 56.21917 43.78524 258 ft 5 kts 101°
2026-04-24 10:52 56.21923 43.78606 258 ft 8 kts 49°
2026-04-24 10:53 56.21981 43.78644 258 ft 8 kts 10°
2026-04-24 10:53 56.22037 43.78664 258 ft 7 kts 12°
2026-04-24 10:53 56.22082 43.78681 258 ft 5 kts 12°
2026-04-24 10:53 56.22116 43.78694 258 ft 4 kts 12°
2026-04-24 10:54 56.22143 43.78704 258 ft 4 kts 12°
2026-04-24 10:54 56.22178 43.78716 258 ft 5 kts 11°
2026-04-24 10:54 56.22214 43.78729 258 ft 4 kts 11°
2026-04-24 10:54 56.22251 43.78742 258 ft 5 kts 15°
2026-04-24 10:55 56.22263 43.78791 258 ft 3 kts 120°
2026-04-24 10:55 56.22250 43.78815 258 ft 1 kts 142°
2026-04-24 10:55 56.22247 43.78819 258 ft 0 kts 142°
2026-04-24 10:55 56.22244 43.78822 258 ft 0 kts 146°
2026-04-24 10:56 56.22241 43.78825 258 ft 0 kts 146°
2026-04-24 10:56 56.22239 43.78828 258 ft 0 kts 147°
2026-04-24 10:56 56.22236 43.78832 258 ft 0 kts 147°
2026-04-24 10:56 56.22233 43.78835 258 ft 0 kts 147°
2026-04-24 10:57 56.22230 43.78838 258 ft 0 kts 147°
2026-04-24 10:57 56.22229 43.78839 258 ft 0 kts 147°